Location: Tel Aviv
(32.0670°N, 34.7670°E)
Time: 02:19:51
(UTC+03:00)

Vanguard 2 - Pass Details

Date: 31 January 2022
Orbit: 552 x 2935 km, 32.9° (Epoch: 26 May)

Event Time Altitude Azimuth Distance (km) Brightness Sun altitude
Rises 02:59:31 0° 270° (W) 6,243 - -45.9°
Reaches altitude 10° 03:06:23 10° 251° (WSW) 5,554 - -44.4°
Maximum altitude 03:14:21 15° 222° (SW) 5,311 - -42.7°
Exits shadow 03:20:21 12° 201° (SSW) 5,547 11.6 -41.5°
Drops below altitude 10° 03:22:37 10° 194° (SSW) 5,717 11.8 -41.0°
Sets 03:30:07 0° 174° (S) 6,520 12.3 -39.4°
